Back to catalog

STARLINK-5895

AliveCommunicationsVLEO
NORAD 55964·PAYLOAD·🇺🇸 United States

Launched Mar 17, 2023 from Vandenberg Space Force Base

Loading…

Next Passes (next 24 hours)

TLE

FreshSource: CelesTrak SupGP

Epoch: Sep 14, 2026, 22:28 UTC

1 55964C 23037BC  26257.93659722  .00014315  00000+0  80963-3 0  2578
2 55964  69.9939 134.4125 0001965 311.2667 313.8758 15.12965828    16

Track STARLINK-5895 in real time with AllMySat

Download on the App Store